Weather History for Chattanooga, TN

Change the Weather History Date:

Sunday, May 5, 2013

  Actual Average Record
Temperature  
Mean Temperature 57 °F 66 °F  
Max Temperature 66 °F 77 °F 92 °F (1949)
Min Temperature 48 °F 54 °F 38 °F (1957)
Degree Days  
Heating Degree Days 8 2  
Month to date heating degree days 18 12  
Since 1 July heating degree days 3048 3212  
Cooling Degree Days 0 3  
Month to date cooling degree days 3 13  
Year to date cooling degree days 43 59  
Growing Degree Days 7 (Base 50)    
Moisture  
Dew Point 48 °F    
Average Humidity 74    
Maximum Humidity 96    
Minimum Humidity 52    
Precipitation  
Precipitation 1.21 in 0.14 in 2.45 in (2003)
Month to date precipitation 4.38 0.71  
Year to date precipitation 31.86 19.43  
Snow  
Snow 0.00 in 0.00 in - ()
Month to date snowfall 0.0 0.0  
Since 1 July snowfall 0.3 3.9  
Snow Depth 0.00 in    
Sea Level Pressure  
Sea Level Pressure 29.83 in    
Wind  
Wind Speed 3 mph (NW)    
Max Wind Speed 17 mph    
Max Gust Speed 22 mph    
Visibility 7 miles    
Events Fog , Rain , Thunderstorm    
T = Trace of Precipitation, MM = Missing Value Source: NWS Daily Summary

Daily Weather History Graph

Daily Weather History Graph

Search for Another Location

Airport:

Trip Planner

Search our weather history database for the weather conditions in past years. The results will help you decide how hot, cold, wet, or windy it might be!

Date:

Astronomy

May. 05, 2013 Rise Set
Actual Time 6:45 AM EDT 8:29 PM EDT
Civil Twilight 6:18 AM EDT 8:57 PM EDT
Nautical Twilight 5:45 AM EDT 9:30 PM EDT
Astronomical Twilight 5:10 AM EDT 10:05 PM EDT
Moon 4:05 AM EDT (5/5) 4:37 PM EDT (5/5)
Length of Visible Light 14h 39m
Length of Day
13h 44m
Waning Crescent, 18% of the Moon is Illuminated
May 5
Waning Crescent
May 9
New
May 18
First Quarter
May 25
Full
May 31
Last Quarter

Hourly Weather History & Observations

Time (EDT) Temp. Dew Point Humidity Pressure Visibility Wind Dir Wind Speed Gust Speed Precip Events Conditions
12:00 AM 50.0 °F 48.2 °F 94% 29.90 in 10.0 mi West 8.1 mph - 0.01 in Rain Rain
12:53 AM 48.9 °F 46.9 °F 93% 29.89 in 10.0 mi West 4.6 mph - 0.16 in Rain Rain
1:53 AM 48.9 °F 46.0 °F 90% 29.87 in 10.0 mi WNW 8.1 mph - 0.19 in Rain Rain
2:04 AM 48.2 °F 46.4 °F 93% 29.88 in 10.0 mi West 5.8 mph - 0.02 in Rain Rain
2:53 AM 48.0 °F 46.0 °F 93% 29.86 in 10.0 mi WNW 6.9 mph - 0.16 in Rain Light Rain
3:11 AM 48.2 °F 46.4 °F 93% 29.85 in 10.0 mi WNW 3.5 mph - 0.08 in Rain Heavy Rain
3:53 AM 48.0 °F 46.9 °F 96% 29.85 in 10.0 mi Calm Calm - 0.20 in Rain Rain
4:53 AM 48.9 °F 46.9 °F 93% 29.83 in 10.0 mi North 3.5 mph - 0.07 in Rain Light Rain
5:06 AM 48.2 °F 46.4 °F 93% 29.84 in 10.0 mi Calm Calm - 0.01 in Rain Light Rain
5:36 AM 48.2 °F 46.4 °F 93% 29.84 in 10.0 mi Calm Calm - 0.01 in   Overcast
5:53 AM 48.9 °F 46.0 °F 90% 29.83 in 6.0 mi Calm Calm - 0.01 in Rain Light Rain
6:53 AM 48.9 °F 46.9 °F 93% 29.84 in 2.5 mi Calm Calm - 0.06 in Rain Rain
7:53 AM 48.9 °F 46.9 °F 93% 29.86 in 4.0 mi Calm Calm - 0.15 in Fog , Rain Light Rain
8:29 AM 50.0 °F 46.4 °F 87% 29.86 in 4.0 mi Calm Calm - 0.02 in Fog , Rain Rain
8:40 AM 50.0 °F 48.2 °F 94% 29.86 in 4.0 mi Calm Calm - 0.03 in Fog , Rain Light Rain
8:53 AM 50.0 °F 48.0 °F 93% 29.86 in 4.0 mi West 3.5 mph - 0.04 in Fog Patches of Fog
9:53 AM 52.0 °F 48.9 °F 89% 29.86 in 5.0 mi Calm Calm - N/A Fog Patches of Fog
10:53 AM 54.0 °F 48.0 °F 80% 29.86 in 6.0 mi Calm Calm - N/A   Overcast
11:53 AM 54.0 °F 50.0 °F 86% 29.85 in 7.0 mi Calm Calm - N/A   Mostly Cloudy
12:41 PM 55.4 °F 48.2 °F 77% 29.85 in 10.0 mi SSW 3.5 mph - N/A   Overcast
12:53 PM 55.0 °F 50.0 °F 83% 29.84 in 10.0 mi Calm Calm - N/A   Overcast
1:14 PM 57.2 °F 50.0 °F 77% 29.84 in 10.0 mi Calm Calm - N/A   Overcast
1:53 PM 57.2 °F 50.0 °F 77% 29.83 in 10.0 mi Calm Calm - N/A   Mostly Cloudy
2:10 PM 59.0 °F 50.0 °F 72% 29.83 in 10.0 mi Calm Calm - N/A   Mostly Cloudy
2:53 PM 63.0 °F 48.9 °F 60% 29.81 in 10.0 mi Calm Calm - N/A   Mostly Cloudy
3:53 PM 66.0 °F 48.9 °F 54% 29.78 in 10.0 mi Variable 6.9 mph - N/A   Scattered Clouds
4:53 PM 64.9 °F 48.0 °F 54% 29.75 in 10.0 mi NE 8.1 mph - N/A   Mostly Cloudy
5:42 PM 62.6 °F 46.4 °F 55% 29.76 in 10.0 mi NE 6.9 mph - N/A Thunderstorm Thunderstorm
5:53 PM 63.0 °F 46.9 °F 56% 29.75 in 10.0 mi NE 6.9 mph - N/A Thunderstorm Thunderstorm
6:21 PM 53.6 °F 50.0 °F 88% 29.81 in 1.5 mi SW 17.3 mph 31.1 mph 0.00 in Rain , Thunderstorm Light Thunderstorms and Rain
6:29 PM 51.8 °F 48.2 °F 88% 29.80 in 1.0 mi West 10.4 mph 23.0 mph 0.05 in Rain , Thunderstorm Heavy Thunderstorms and Rain
6:36 PM 51.8 °F 48.2 °F 88% 29.81 in 1.0 mi SW 9.2 mph 17.3 mph 0.12 in Rain , Thunderstorm Heavy Thunderstorms and Rain
6:48 PM 51.8 °F 48.2 °F 88% 29.81 in 2.0 mi SW 6.9 mph - 0.17 in Rain , Thunderstorm Thunderstorms and Rain
6:53 PM 52.0 °F 48.9 °F 89% 29.81 in 2.0 mi WSW 5.8 mph - 0.19 in Rain , Thunderstorm Heavy Thunderstorms and Rain
7:12 PM 51.8 °F 48.2 °F 88% 29.80 in 7.0 mi West 8.1 mph - 0.05 in Rain , Thunderstorm Light Thunderstorms and Rain
7:34 PM 51.8 °F 48.2 °F 88% 29.81 in 10.0 mi North 4.6 mph - 0.05 in Rain Light Rain
7:53 PM 51.8 °F 48.2 °F 88% 29.81 in 8.0 mi North 8.1 mph - N/A Rain Light Rain
8:53 PM 52.0 °F 50.0 °F 93% 29.84 in 10.0 mi Calm Calm - 0.07 in   Overcast
9:53 PM 52.0 °F 50.0 °F 93% 29.83 in 3.0 mi East 3.5 mph - 0.00 in   Overcast
10:12 PM 51.8 °F 50.0 °F 94% 29.82 in 1.5 mi NE 5.8 mph - 0.01 in Rain Light Rain
10:53 PM 52.0 °F 50.0 °F 93% 29.81 in 1.5 mi NNE 8.1 mph - 0.06 in Rain Light Rain
11:27 PM 51.8 °F 50.0 °F 94% 29.80 in 3.0 mi NE 12.7 mph 21.9 mph 0.01 in Rain Light Rain
11:53 PM 52.0 °F 48.9 °F 89% 29.80 in 3.0 mi Calm Calm - 0.02 in Rain Light Rain